Regional Weather Roundup
Issued by NWS

Home | Current Version | Previous Version | Text Only | Print | Product List | Glossary On
Versions: 1 2 3 4 5 6 7 8 9 10 11 12 13 14 15 16 17 18 19 20 21 22 23 24 25 26 27 28 29 30 31 32 33 34 35 36 37 38 39 40 41 42 43 44 45 46 47 48 49 50
000
ASUS43 KOAX 230810
RWRNE

WEATHER ROUNDUP FOR NEBRASKA
NATIONAL WEATHER SERVICE OMAHA NE
300 AM CDT WED APR 23 2014

NOTES: SATELLITE DATA IS BEING USED TO AUGMENT CLOUD COVER ABOVE
       12000 FEET.
       "FAIR" INDICATES FEW OR NO CLOUDS BELOW 12,000 FEET WITH NO
       SIGNIFICANT WEATHER AND/OR OBSTRUCTIONS TO VISIBILITY.

  * THESE STATIONS DO NOT REPORT WEATHER SUCH AS RAIN...SNOW OR FOG.

NEZ001>004-019>022-054>056-230900-
NEBRASKA PANHANDLE

CITY           SKY/WX    TMP DP  RH WIND       PRES   REMARKS
SCOTTSBLUFF    CLOUDY    58  42  55 SE14      29.54F
ALLIANCE       CLOUDY    59  46  62 S21G29    29.55F
CHADRON        MOCLDY    62  43  49 S25G35    29.47F
KIMBALL        CLOUDY    52  39  61 S6        29.57F
SIDNEY         CLOUDY    55  44  66 S14       29.59F
$$

NEZ057>060-069>072-079>082-230900-
SOUTHWEST NEBRASKA

CITY           SKY/WX    TMP DP  RH WIND       PRES   REMARKS
NORTH PLATTE   MOCLDY    59  37  44 SE15G24   29.66F
IMPERIAL       MOCLDY    60  45  57 S21G28    29.63F
LEXINGTON      MOCLDY    58  34  40 SE16G22   29.72F
MCCOOK         MOCLDY    60  36  40 S29G40    29.66F
OGALLALA       PTCLDY    56  43  61 SE7       29.61F
$$

NEZ005>010-023>029-035>040-094-230900-
NORTH CENTRAL NEBRASKA

CITY           SKY/WX    TMP DP  RH WIND       PRES   REMARKS
VALENTINE      MOCLDY    56  32  40 SE15      29.65F
AINSWORTH      PTCLDY    55  33  41 SE15      29.70F
BROKEN BOW     CLOUDY    53  33  46 SE13G23   29.73F
O`NEILL        MOCLDY    57  29  34 SE24G30   29.77F
ORD            MOCLDY    55  32  41 SE10      29.77F
THEDFORD       PTCLDY    60  36  40 S22G28    29.66F
$$

NEZ041-046>049-061>064-073>077-083>087-230900-
SOUTH CENTRAL NEBRASKA

CITY           SKY/WX    TMP DP  RH WIND       PRES   REMARKS
GRAND ISLAND   MOCLDY    55  33  43 SE17G31   29.81F
AURORA         PTCLDY    56  33  42 SE20      29.83F
HASTINGS       MOCLDY    57  32  38 SE18G28   29.79F
HEBRON         MOCLDY    56  32  40 SE10      29.85F
HOLDREGE       CLOUDY    57  36  45 S23       29.75F
KEARNEY *      MOCLDY    55  32  41 SE16      29.77F
YORK           PTCLDY    54  32  43 SE16      29.86F
$$

NEZ011>018-030>034-042>045-230900-
NORTHEAST NEBRASKA

CITY           SKY/WX    TMP DP  RH WIND       PRES   REMARKS
NORFOLK        PTCLDY    54  34  46 SE20G25   29.85F
ALBION         PTCLDY    55  32  41 SE20      29.83F
BLAIR          MOCLDY    55  33  41 SE15      29.93F
COLUMBUS *     CLEAR     55  32  41 SE13G18   29.88F
FREMONT        PTCLDY    55  33  43 SE12      29.92S
TEKAMAH        MOCLDY    54  32  43 SE17      29.93F
$$

NEZ050>053-065>068-078-088>093-230900-
SOUTHEAST NEBRASKA

CITY           SKY/WX    TMP DP  RH WIND       PRES   REMARKS
LINCOLN        CLEAR     59  34  39 SE18G25   29.92F
OMAHA EPPLEY   MOCLDY    57  34  41 SE17      29.95F
BEATRICE       PTCLDY    57  32  39 SE12      29.90F
FALLS CITY     MOCLDY    51  37  58 E8        29.98R
NEBRASKA CITY  MOCLDY    54  38  55 SE13      29.96F
PLATTSMOUTH    CLOUDY    57  32  39 SE14G20   29.95F
$$

NEZ044-045-051>053-067-230900-
OMAHA AREA

CITY           SKY/WX    TMP DP  RH WIND       PRES   REMARKS
OMAHA EPPLEY   MOCLDY    57  34  41 SE17      29.95F
BLAIR          MOCLDY    55  33  41 SE15      29.93F
FREMONT        PTCLDY    55  33  43 SE12      29.92S
MILLARD        PTCLDY    56  35  44 SE9       29.94F
OFFUTT AFB     MOCLDY    56  36  47 SE15      29.95F
PLATTSMOUTH    CLOUDY    57  32  39 SE14G20   29.95F
WAHOO          PTSUNNY   52  35  51 SE13      29.92S
$$



USA.gov is the U.S. government's official web portal to all federal, state and local government web resources and services.